Starlink 34590

operational
NORAD ID: 64675 Int'l Des: 2025-139 Owner: SPXS Country: US Constellation: starlink
LEOCIRCULAR

Starlink 34590について

説明を読み込み中...

リアルタイム位置

3D地球を読み込み中...

次回通過

高度履歴

Altitude vs Time

uPlot chart will show altitude changes over time

軌道要素

1 64675U 25139M 26095.43522558 .00046082 00000-0 15593-2 0 9999
2 64675 53.1595 3.1885 0001142 126.9343 233.1762 15.30180843 44374
Epoch: Apr 5, 2026 • Age: 8 hours

現在のステータス

高度 489.1 km
速度 7.62 km/s
衛星直下点 -39.88°S, 141.62°W
打ち上げ日 Jun 28, 2025
運用期間 0.7 years
タイプ internet

技術仕様

分類 Payload
質量 575.00 kg
乾燥質量 530.00 kg
総質量 575.00 kg
長さ 0.30 m
直径 4.10 m
スパン 29.00 m
形状 Box + pan
製造者 SPXS
バスタイプ Starlink V2MO
フェーズステータス In Orbit
所有者/国 SPXS/US

大規模コンステレーション

Loading constellations...